Location: Devore Heights
(34.2372°N, 117.4156°W)
Time: 01:35:44
(UTC+00:00)

SR - Pass Details

Date: 19 September 2024
Orbit: 578 x 855 km, 66.7° (Epoch: 02 October)

Event Time Altitude Azimuth Distance (km) Brightness Sun altitude
Rises 05:20:25 0° 333° (NNW) 2,998 ? -41.2°
Enters shadow 05:22:34 10° 333° (NNW) 2,153 ? -41.5°
Reaches altitude 10° 05:22:39 10° 333° (NNW) 2,123 - -41.5°
Maximum altitude 05:27:29 87° 245° (WSW) 727 - -42.3°
Drops below altitude 10° 05:32:45 10° 156° (SSE) 2,297 - -43.1°
Sets 05:35:14 0° 156° (SSE) 3,263 - -43.5°
